[[{"header":{"parameterUnit":"m.s-1","parameterCategory":1,"la1":30.2991,"la2":30.254,"lo1":-89.0895,"lo2":-89.0444,"dy":0.0017,"dx":0.0017,"nx":28,"ny":28,"refTime":"2025-08-14T21:00:00:Z","depth":0,"parameterNumber":2,"parameterNumberName":"U-component_of_WINDS"},"data":[0,0,0,0,0,0,0,0,0,0,0,0,0,0,0,0,0,0,0,0,0,0,0,0,0,0,0,0,0,0,0,0,0,0,0,0,0,0,0,0,0,0,0,0,0,0,0,0,0,0,0,0,0,0,0,0,0,0,0.9431,0.9432,0,0.9468,0.9468,0.9468,0.9429,0.9427,0.9426,0.9424,0.9467,0.947,0.9472,0,0,0,0,0,0,0,0,0,0,0,0,0,0.9333,0.9335,0.9431,0.9432,0.9432,0.9468,0.9468,0.9469,0.9429,0.9427,0.9425,0.9423,0.9466,0.9469,0.9472,0,0,0,0,0,0,0,0,0,0,0,0,0,0.9373,0.9335,0.9431,0.9416,0.9415,0.9467,0.9468,0.9469,0.9429,0.9427,0.9425,0.9423,0.9465,0.9469,0.9473,0.9543,0,0,0.9485,0.9486,0,0,0,0,0,0,0,0,0.9371,0.9377,0.9418,0.9418,0.9417,0.9441,0.9449,0.9494,0.943,0.9424,0.9424,0.9421,0.9461,0.9465,0.9477,0.9545,0.9547,0.9485,0.9487,0.9489,0.949,0,0,0,0,0,0,0,0.9368,0.9375,0.9446,0.9419,0.9418,0.941,0.9413,0.9457,0.9455,0.9425,0.9422,0.9426,0.946,0.9473,0.9478,0.9547,0.9485,0.9488,0.9491,0.9492,0.9675,0.9677,0,0,0,0,0,0,0.9366,0.9373,0.9445,0.9447,0.9387,0.9413,0.9417,0.9436,0.9455,0.9455,0.9428,0.9424,0.9468,0.9473,0.9479,0.9562,0.9489,0.9493,0.9495,0.9672,0.9675,0.9678,0,0,0,0,0,0,0.9364,0.9373,0.9443,0.9409,0.9417,0.9418,0.9439,0.9438,0.9451,0.9457,0.9457,0.9442,0.9466,0.9474,0.9527,0.9563,0.9494,0.9498,0.9669,0.9673,0.9677,0.973,0,0,0,0,0,0,0.9362,0.9373,0.9398,0.941,0.9419,0.9489,0.9441,0.944,0.9457,0.9452,0.947,0.9471,0.9465,0.9521,0.9531,0.9567,0.9501,0.9666,0.9671,0.9676,0.9725,0.9735,0.9743,0,0,0,0,0,0.9358,0.9412,0.9399,0.9408,0.9451,0.9491,0.9497,0.9487,0.946,0.9486,0.949,0.947,0.9558,0.9527,0.9537,0.9576,0.9664,0.967,0.9675,0.972,0.9733,0.9743,0,0,0,0,0,0,0.9407,0.9414,0.9399,0.9459,0.9474,0.9484,0.9517,0.9501,0.9526,0.9521,0.9509,0.9514,0.957,0.9578,0.9544,0.9645,0.9607,0.9615,0.9637,0.9649,0.9658,0.9656,0.9504,0,0,0,0,0,0.9424,0.9454,0.946,0.9512,0.952,0.9517,0.9535,0.9526,0.9542,0.9549,0.9557,0.9576,0.9607,0.9629,0.9658,0.9725,0.9729,0.9757,0.9766,0.9774,0.9781,0.9818,0.9831,0.9697,0.9697,0.9697,0,0,0.9461,0.9468,0.9489,0.9522,0.9533,0.9566,0.9523,0.9561,0.9586,0.9556,0.9606,0.9613,0.9633,0.9693,0.9721,0.9702,0.9819,0.9781,0.9787,0.979,0.9825,0.9838,0.9849,0.9701,0.97,0.97,0,0,0.9545,0.9553,0.9597,0.9609,0.9625,0.9623,0.9634,0.9646,0.9649,0.9699,0.9677,0.9708,0.9762,0.9777,0.9792,0.9881,0.9864,0.9891,0.9941,0.9977,0.9987,0.9997,1.0029,1.0041,0.9899,0.9899,0.9899,0,0.9589,0.9636,0.9623,0.9661,0.9677,0.9649,0.9695,0.9707,0.9734,0.9746,0.9724,0.9791,0.9803,0.9867,0.9888,0.9901,0.9914,0.989,0.9986,0.9996,1.0004,1.0035,1.0047,0.9902,0.9902,0.9901,0.9901,0,0.969,0.9724,0.9758,0.9782,0.9801,0.9843,0.9837,0.9859,0.9849,0.9849,0.9901,0.9914,0.9945,0.9959,0.995,1.0023,1.001,0.9988,0.9949,1.002,1.0049,1.0061,0.9907,0.9905,0.9904,0.9904,0,0,0.9807,0.9821,0.9834,0.9845,0.9861,0.9888,0.9929,0.9958,0.9977,0.9996,1.0032,1.0078,1.0057,1.0074,1.0066,1.0097,1.0168,1.0071,1.0071,1.0089,1.0249,1.0267,1.028,1.0156,1.0158,1.016,1.0248,0,0.9891,0.996,0.9949,1.0017,1.0049,1.0023,1.0059,1.0074,1.0075,1.0104,1.0106,1.0139,1.0108,1.0118,1.0148,1.0153,1.02,1.0146,1.0191,1.0192,1.0187,1.0295,1.0314,1.0396,1.0259,1.0261,1.0262,0,0.9999,1.002,1.0091,1.0102,1.0115,1.0147,1.0173,1.02,1.0216,1.0215,1.0234,1.022,1.0263,1.0223,1.0283,1.0247,1.0264,1.0269,1.0272,1.0277,1.0232,1.0304,1.0422,1.0435,1.028,1.0278,1.0277,0,1.0078,1.0124,1.0172,1.0182,1.0196,1.022,1.0227,1.0241,1.0259,1.0282,1.0294,1.0322,1.0338,1.0361,1.0356,1.0327,1.0418,1.0377,1.0419,1.042,1.044,1.0439,1.0564,1.045,1.045,1.045,1.045,0,1.0174,1.0219,1.0208,1.0238,1.0287,1.0274,1.0324,1.0328,1.0341,1.0373,1.0352,1.0382,1.0373,1.0404,1.04,1.0451,1.0458,1.046,1.0458,1.0462,1.0462,1.0474,1.0468,1.0453,1.0453,1.0452,1.0451,0,1.0271,1.0265,1.0316,1.0324,1.0328,1.0364,1.0372,1.0401,1.04,1.044,1.0449,1.0449,1.0484,1.048,1.052,1.0517,1.058,1.0572,1.0574,1.0572,1.0615,1.0611,1.0752,1.077,1.0644,1.0646,1.0647,0,1.0333,1.0366,1.0378,1.0396,1.0405,1.0435,1.0453,1.0442,1.0462,1.0483,1.0509,1.0541,1.0567,1.0623,1.0628,1.0658,1.0651,1.0698,1.0656,1.0658,1.0653,1.0651,1.0654,1.0707,1.0709,1.071,1.0711,0,1.0444,1.0439,1.0465,1.0489,1.0511,1.053,1.0548,1.0565,1.0555,1.0579,1.0613,1.0632,1.0671,1.0704,1.0733,1.0742,1.0726,1.0724,1.0735,1.074,1.074,1.0741,1.0598,1.0721,1.072,1.0719,1.0719,1.0718,1.0526,1.0554,1.0567,1.0596,1.0607,1.0624,1.0651,1.0653,1.0681,1.0711,1.0703,1.0742,1.0758,1.0794,1.0806,1.0837,1.082,1.0837,1.0841,1.0845,1.085,1.0734,1.0842,1.0842,1.0842,1.0841,1.0841,0,1.0637,1.0643,1.067,1.0694,1.0717,1.0697,1.0715,1.0737,1.077,1.0786,1.081,1.085,1.0881,1.0888,1.0918,1.0942,1.0935,1.0951,1.0949,1.0952,1.0864,1.0851,1.0955,1.0955,1.0955,1.0955,1.0955,1.0955,1.0697,1.0744,1.0741,1.0794,1.08,1.0836,1.0848,1.0864,1.0876,1.092,1.0946,1.0949,1.0961,1.0992,1.1021,1.1022,1.1035,1.1053,1.1052,1.0969,1.0958,1.0947,1.0935,1.1056,1.1056,1.1137,1.1138,1.1138]},{"header":{"parameterUnit":"m.s-1","parameterCategory":1,"la1":30.2991,"la2":30.254,"lo1":-89.0895,"lo2":-89.0444,"dy":0.0017,"dx":0.0017,"nx":28,"ny":28,"refTime":"2025-08-14T21:00:00:Z","depth":0,"parameterNumber":3,"parameterNumberName":"V-component_of_WINDS"},"data":[0,0,0,0,0,0,0,0,0,0,0,0,0,0,0,0,0,0,0,0,0,0,0,0,0,0,0,0,0,0,0,0,0,0,0,0,0,0,0,0,0,0,0,0,0,0,0,0,0,0,0,0,0,0,0,0,0,0,2.5362,2.5362,0,2.535,2.535,2.535,2.5323,2.5322,2.5322,2.5321,2.5306,2.5306,2.5306,0,0,0,0,0,0,0,0,0,0,0,0,0,2.5355,2.5356,2.5362,2.5362,2.5362,2.535,2.535,2.535,2.5323,2.5322,2.5321,2.5321,2.5306,2.5306,2.5306,0,0,0,0,0,0,0,0,0,0,0,0,0,2.5352,2.5356,2.5362,2.5347,2.5345,2.535,2.535,2.535,2.5323,2.5322,2.5321,2.532,2.5306,2.5306,2.5306,2.5324,0,0,2.5307,2.5307,0,0,0,0,0,0,0,0,2.5353,2.5353,2.5349,2.5348,2.5346,2.5337,2.5342,2.5341,2.5323,2.5331,2.5321,2.532,2.5317,2.5316,2.5316,2.5323,2.5323,2.5307,2.5307,2.5307,2.5307,0,0,0,0,0,0,0,2.5353,2.5353,2.5357,2.5349,2.5347,2.5339,2.5337,2.5342,2.5329,2.5331,2.5329,2.5328,2.5316,2.5315,2.5315,2.5322,2.5307,2.5307,2.5307,2.5307,2.534,2.534,0,0,0,0,0,0,2.5356,2.5353,2.5357,2.5357,2.5348,2.534,2.5338,2.5341,2.5329,2.5326,2.5328,2.5326,2.5316,2.5315,2.5314,2.5332,2.5307,2.5307,2.5307,2.5339,2.534,2.5341,0,0,0,0,0,0,2.5356,2.5357,2.5358,2.5354,2.5354,2.5341,2.5344,2.5341,2.5341,2.5327,2.5324,2.5331,2.5315,2.5314,2.5321,2.5331,2.5307,2.5307,2.5338,2.5339,2.534,2.5368,0,0,0,0,0,0,2.5356,2.5357,2.5365,2.5355,2.5354,2.5367,2.5345,2.5341,2.5341,2.5339,2.5329,2.5326,2.5314,2.5321,2.5321,2.5331,2.5308,2.5337,2.5339,2.534,2.5366,2.537,2.5373,0,0,0,0,0,2.5356,2.5373,2.5365,2.5366,2.5364,2.5367,2.5367,2.5354,2.5342,2.5349,2.534,2.5326,2.533,2.5322,2.5322,2.5332,2.5336,2.5338,2.534,2.5364,2.5369,2.5373,0,0,0,0,0,0,2.5384,2.5372,2.5363,2.5378,2.5374,2.5363,2.5371,2.536,2.5358,2.5355,2.5338,2.5336,2.5344,2.5339,2.533,2.5346,2.5331,2.5333,2.5349,2.5354,2.5357,2.5358,2.5308,0,0,0,0,0,2.5392,2.5397,2.5385,2.54,2.5398,2.5385,2.5386,2.5376,2.5371,2.5368,2.536,2.5354,2.5353,2.5353,2.5352,2.5365,2.5361,2.5371,2.5375,2.5378,2.5379,2.5382,2.5386,2.5346,2.5346,2.5346,0,0,2.5409,2.5403,2.5407,2.5405,2.5401,2.5404,2.5384,2.5389,2.539,2.5369,2.5374,2.5368,2.536,2.5369,2.5372,2.5364,2.5389,2.538,2.5383,2.5382,2.5384,2.5388,2.5391,2.5347,2.5347,2.5347,0,0,2.5441,2.5438,2.5448,2.5443,2.5437,2.5428,2.543,2.542,2.5415,2.542,2.5403,2.5404,2.5404,2.5398,2.5395,2.5421,2.5408,2.5421,2.5439,2.5442,2.5445,2.5448,2.5455,2.5457,2.5423,2.5423,2.5423,0,2.5462,2.5467,2.5454,2.5459,2.5458,2.5439,2.5447,2.5443,2.5436,2.5435,2.5426,2.5424,2.5418,2.5423,2.5429,2.5429,2.5428,2.5422,2.5446,2.5449,2.5451,2.5457,2.546,2.5425,2.5424,2.5424,2.5424,0,2.5492,2.5496,2.5504,2.5498,2.5498,2.5505,2.549,2.5491,2.548,2.5471,2.5475,2.5467,2.5462,2.5463,2.5453,2.5466,2.5461,2.545,2.5434,2.5456,2.5462,2.5464,2.5427,2.5426,2.5426,2.5425,0,0,2.5542,2.5527,2.553,2.5525,2.5516,2.5517,2.5522,2.5518,2.5518,2.5513,2.5515,2.5514,2.5502,2.5499,2.5488,2.5491,2.5508,2.5479,2.5478,2.5482,2.5519,2.5526,2.5529,2.55,2.55,2.55,2.5519,0,2.5569,2.5577,2.5564,2.5575,2.5576,2.5557,2.556,2.5553,2.5545,2.5543,2.5533,2.5531,2.5518,2.5515,2.5517,2.5506,2.5515,2.5505,2.5499,2.5499,2.55,2.5533,2.5541,2.5559,2.5521,2.5521,2.5522,0,2.5602,2.5599,2.561,2.5596,2.5597,2.56,2.5594,2.5594,2.5584,2.5577,2.5572,2.5559,2.556,2.5546,2.5545,2.5538,2.5535,2.5528,2.5529,2.5526,2.5511,2.5529,2.5565,2.5566,2.5525,2.5525,2.5525,0,2.5634,2.5632,2.5637,2.5634,2.562,2.5623,2.5617,2.5607,2.5604,2.5598,2.5595,2.559,2.5586,2.558,2.5565,2.5556,2.5565,2.555,2.5557,2.5557,2.5559,2.5559,2.5592,2.556,2.556,2.556,2.556,0,2.5665,2.5671,2.5651,2.5654,2.566,2.5644,2.5649,2.5641,2.5632,2.5631,2.5614,2.5614,2.5594,2.5591,2.5578,2.5578,2.5577,2.557,2.5566,2.557,2.5571,2.5567,2.5564,2.5561,2.556,2.556,2.556,0,2.57,2.5688,2.5692,2.5677,2.5674,2.5678,2.5665,2.5666,2.5656,2.5655,2.5654,2.5637,2.5631,2.5616,2.5607,2.5598,2.5601,2.5595,2.5604,2.5601,2.5608,2.5607,2.5639,2.5641,2.561,2.561,2.561,0,2.572,2.5724,2.571,2.5709,2.5704,2.5702,2.5699,2.5683,2.568,2.5668,2.567,2.5663,2.5657,2.5649,2.5635,2.5627,2.562,2.5632,2.5619,2.5622,2.5617,2.5617,2.5616,2.5634,2.5635,2.5635,2.5635,0,2.5755,2.5748,2.5745,2.5739,2.5736,2.573,2.5723,2.5723,2.5704,2.5701,2.5696,2.5691,2.5681,2.5674,2.5664,2.5655,2.5641,2.564,2.564,2.5644,2.5648,2.5644,2.561,2.5639,2.5638,2.5638,2.5638,2.5638,2.5781,2.5783,2.5773,2.5769,2.5762,2.5756,2.5755,2.5745,2.574,2.5731,2.5722,2.5717,2.5705,2.5689,2.5681,2.5676,2.5669,2.5671,2.5671,2.5671,2.5672,2.565,2.5674,2.5674,2.5674,2.5674,2.5674,0,2.5813,2.5805,2.5802,2.5793,2.5789,2.5778,2.5769,2.5766,2.5762,2.5753,2.5747,2.5739,2.5732,2.5717,2.5707,2.5705,2.5698,2.5703,2.5702,2.57,2.568,2.5679,2.5709,2.5709,2.5709,2.5709,2.5709,2.5709,2.5829,2.5831,2.5822,2.5819,2.5811,2.5807,2.5803,2.5796,2.5788,2.578,2.5774,2.5765,2.5752,2.5741,2.5732,2.5728,2.5724,2.5731,2.5724,2.5705,2.5702,2.5699,2.5698,2.573,2.5731,2.5744,2.5744,2.5744]}]]